Miscellaneous Local Product
Issued by NWS Hastings, NE

Home | Current Version | Previous Version | Graphics & Text | Print | Product List | Glossary On
Versions: 1 2 3 4 5 6 7 8 9 10 11 12 13 14 15 16 17 18 19 20 21 22 23 24 25 26 27 28 29 30 31 32 33 34 35 36 37 38 39 40 41 42 43 44 45 46 47 48 49 50
000
AXUS43 KGID 280702
MISGRI

GID CWA HOURLY WEATHER ROUNDUP
NATIONAL WEATHER SERVICE HASTINGS NE
100 AM CST SUN DEC 28 2014

NOTE: "FAIR" INDICATES FEW OR NO CLOUDS BELOW 12,000 FEET WITH NO
SIGNIFICANT WEATHER AND/OR OBSTRUCTIONS TO VISIBILITY.

...SOUTH CENTRAL NEBRASKA...

CITY           SKY/WX    TMP DP  RH WIND       PRES   REMARKS
GRAND ISLAND     N/A     14   9  80 SW12      30.15F WCI   0
HASTINGS       CLEAR     20  12  71 W13       30.15F WCI   7
KEARNEY        PTCLDY    16   9  73 SW7       30.15F WCI   6
ORD            PTCLDY     9   5  84 W3        30.11F
YORK           CLEAR     14  10  85 SW9       30.16F WCI   2
AURORA         CLEAR     15  11  84 W10       30.15F WCI   2
LEXINGTON      PTCLDY     2  -1  85 NW3       30.14F
HOLDREGE       PTCLDY    19  12  76 W10       30.15F WCI   7
HEBRON         CLEAR     17  13  83 W3        30.21F

...NEBRASKA PANHANDLE...

CITY           SKY/WX    TMP DP  RH WIND       PRES   REMARKS
CHADRON        PTCLDY     4   0  83 SW7       30.04F WCI  -8
ALLIANCE       MOCLDY     0  -4  83 W7        30.02F WCI -13
SCOTTSBLUFF    MOCLDY     0  -5  79 N5        30.04F WCI -10
SIDNEY         MOCLDY    -1  -7  75 W9        30.05F WCI -16

...WESTERN AND NORTH CENTRAL NEBRASKA...

CITY           SKY/WX    TMP DP  RH WIND       PRES   REMARKS
VALENTINE      PTCLDY     2  -2  83 W7        30.06F WCI -11
AINSWORTH      CLEAR     10   4  78 W7        30.05F WCI  -2
ONEILL         PTCLDY     9   7  92 SW7       30.08F WCI  -2
BROKEN BOW     CLEAR     19   9  65 W13       30.09F WCI   6
IMPERIAL       MOCLDY    -1  -5  82 CALM      30.12F
NORTH PLATTE   PTCLDY     3  -1  83 NW8       30.11F WCI -10
MCCOOK         MOCLDY     7   4  87 W10       30.16F WCI  -8

...EASTERN NEBRASKA...

CITY           SKY/WX    TMP DP  RH WIND       PRES   REMARKS
NORFOLK        PTCLDY    10   6  84 CALM      30.11F
SO SIOUX CITY  PTCLDY     7   4  87 E7        30.15F WCI  -5
TEKAMAH        PTCLDY    13   9  84 CALM      30.18F
COLUMBUS       CLEAR     16   7  67 W8        30.15F WCI   5
ALBION         PTCLDY    13   8  78 NW7       30.11F WCI   3
OMAHA EPPLEY   CLEAR     18  14  84 CALM      30.20F
OFFUTT AFB     CLEAR     18  15  87 S2        30.19F
MILLARD        CLEAR     19  15  85 CALM      30.19F
LINCOLN        CLEAR     19  13  77 SW6       30.20F WCI  11
NEBRASKA CITY  CLEAR     16  13  88 SW8       30.19F WCI   6
BEATRICE       CLEAR     15  11  85 W5        30.20F WCI   7
FALLS CITY     CLEAR     19  15  84 SW7       30.23F WCI  10

...NORTHERN KANSAS...

CITY           SKY/WX    TMP DP  RH WIND       PRES   REMARKS
GOODLAND       PTCLDY    17  11  77 SW9       30.11F WCI   6
HILL CITY      PTCLDY    11   6  81 SW6       30.20F WCI   1
NORTON         SUNNY      9   1  72 SW8       30.16F WCI  -4
PHILLIPSBURG   CLEAR     12  10  92 S3        30.20F
BELOIT         CLEAR     16  12  86 CALM      30.23S
HAYS           CLEAR     16   5  62 W5        30.20F WCI   9
RUSSELL        CLEAR     14  12  92 SW9       30.20F WCI   2
CONCORDIA      CLEAR     20  15  81 W6        30.22F WCI  12
SALINA         CLEAR     20  14  77 SW9       30.26F WCI   9
TOPEKA         CLEAR     22  19  89 CALM      30.27F



USA.gov is the U.S. government's official web portal to all federal, state and local government web resources and services.